JAL33LR RJCC-RJOO

Flight info

Callsign JAL33LR
Flight time 1h 27m
Altitude 34000
Route DALBI Y120 TAPPI Y12 ARIKA Y14 GOLDO Y381 KMC Y384 ROKKO KAMEO OTABE ABENO IKOMA
Aircraft B738/M-SDE2E3FGHIRWXY/LB1

Departure

Time 2026-05-06 15:47
Airport New Chitose Airport (RJCC)

Arrival

Time 2026-05-06 17:15
Airport Osaka Itami International Airport (RJOO)
Time Latitude Longitude Altitude Speed Heading
2026-05-06 15:33 42.78529 141.68159 94 ft 0 kts 313°
2026-05-06 15:42 42.78522 141.68169 94 ft 2 kts 313°
2026-05-06 15:42 42.78513 141.68182 93 ft 2 kts 313°
2026-05-06 15:42 42.78502 141.68198 93 ft 2 kts 313°
2026-05-06 15:42 42.78492 141.68213 93 ft 2 kts 313°
2026-05-06 15:43 42.78482 141.68228 92 ft 2 kts 321°
2026-05-06 15:43 42.78468 141.68237 92 ft 2 kts 350°
2026-05-06 15:43 42.78453 141.68237 91 ft 2 kts 15°
2026-05-06 15:43 42.78439 141.68228 91 ft 2 kts 39°
2026-05-06 15:44 42.78434 141.68221 91 ft 1 kts 54°
2026-05-06 15:44 42.78431 141.68216 91 ft 0 kts 51°
2026-05-06 15:45 42.78450 141.68247 91 ft 12 kts 49°
2026-05-06 15:45 42.78533 141.68333 90 ft 15 kts 31°
2026-05-06 15:46 42.78628 141.68416 88 ft 16 kts 50°
2026-05-06 15:46 42.78670 141.68568 84 ft 19 kts 82°
2026-05-06 15:46 42.78685 141.68756 79 ft 19 kts 86°
2026-05-06 15:46 42.78652 141.68845 77 ft 11 kts 184°
2026-05-06 15:47 42.78558 141.68861 77 ft 26 kts 172°
2026-05-06 15:47 42.78085 141.68945 75 ft 109 kts 173°
2026-05-06 15:47 42.77119 141.69080 76 ft 162 kts 174°
2026-05-06 15:47 42.75996 141.69223 892 ft 160 kts 175°
2026-05-06 15:48 42.75455 141.69307 1303 ft 164 kts 172°
2026-05-06 15:48 42.74307 141.69608 2063 ft 178 kts 171°
2026-05-06 15:48 42.73032 141.69923 2800 ft 195 kts 175°
2026-05-06 15:48 42.71662 141.70197 3560 ft 210 kts 178°
2026-05-06 15:49 42.70149 141.70483 4236 ft 232 kts 178°
2026-05-06 15:49 42.68506 141.70813 5086 ft 247 kts 178°
2026-05-06 15:49 42.66757 141.71045 5844 ft 260 kts 187°
2026-05-06 15:49 42.65036 141.70581 6918 ft 252 kts 210°
2026-05-06 15:50 42.63606 141.69293 7949 ft 250 kts 226°
2026-05-06 15:50 42.62441 141.67563 8895 ft 255 kts 236°
2026-05-06 15:50 42.61659 141.65437 9867 ft 258 kts 254°
2026-05-06 15:50 42.61305 141.63062 10698 ft 268 kts 260°
2026-05-06 15:51 42.61012 141.60463 11342 ft 286 kts 260°
2026-05-06 15:51 42.60693 141.57761 11972 ft 302 kts 259°
2026-05-06 15:51 42.60326 141.54869 12599 ft 319 kts 259°
2026-05-06 15:51 42.59929 141.51863 13232 ft 335 kts 259°
2026-05-06 15:52 42.59502 141.48666 13779 ft 352 kts 259°
2026-05-06 15:52 42.59060 141.45357 14339 ft 368 kts 259°
2026-05-06 15:52 42.58593 141.41866 15027 ft 381 kts 259°
2026-05-06 15:52 42.58125 141.38347 15899 ft 387 kts 259°
2026-05-06 15:53 42.57646 141.34758 16887 ft 389 kts 258°
2026-05-06 15:53 42.57142 141.31148 17772 ft 394 kts 257°
2026-05-06 15:53 42.56513 141.27576 18664 ft 397 kts 254°
2026-05-06 15:53 42.55636 141.24019 19542 ft 401 kts 250°
2026-05-06 15:54 42.54574 141.20497 20404 ft 405 kts 247°
2026-05-06 15:54 42.53440 141.17032 21245 ft 408 kts 246°
2026-05-06 15:54 42.52260 141.13513 22060 ft 412 kts 246°
2026-05-06 15:54 42.51085 141.10020 22879 ft 414 kts 247°
2026-05-06 15:55 42.49887 141.06448 23603 ft 419 kts 247°
2026-05-06 15:55 42.48694 141.02870 24291 ft 423 kts 247°
2026-05-06 15:55 42.47487 140.99231 24891 ft 429 kts 247°
2026-05-06 15:55 42.46264 140.95535 25584 ft 432 kts 248°
2026-05-06 15:56 42.45052 140.91872 26432 ft 432 kts 248°
2026-05-06 15:56 42.43829 140.88181 27362 ft 428 kts 248°
2026-05-06 15:56 42.42618 140.84526 28279 ft 425 kts 248°
2026-05-06 15:56 42.41423 140.80917 29105 ft 423 kts 249°
2026-05-06 15:57 42.40213 140.77315 29913 ft 421 kts 248°
2026-05-06 15:57 42.38839 140.73714 30640 ft 423 kts 244°
2026-05-06 15:57 42.37230 140.70383 31300 ft 427 kts 238°
2026-05-06 15:57 42.35303 140.67273 32104 ft 428 kts 232°
2026-05-06 15:58 42.33139 140.64500 32756 ft 432 kts 227°
2026-05-06 15:58 42.30692 140.61997 33159 ft 442 kts 220°
2026-05-06 15:58 42.28010 140.59860 33731 ft 448 kts 214°
2026-05-06 15:58 42.25120 140.58077 33936 ft 460 kts 209°
2026-05-06 15:59 42.18976 140.55365 33960 ft 460 kts 202°
2026-05-06 15:59 42.12774 140.53098 33955 ft 459 kts 202°
2026-05-06 16:00 42.06610 140.50856 33956 ft 460 kts 202°
2026-05-06 16:00 42.00441 140.48592 33953 ft 460 kts 202°
2026-05-06 16:01 41.94246 140.46291 33958 ft 460 kts 202°
2026-05-06 16:01 41.88092 140.44006 33955 ft 459 kts 202°
2026-05-06 16:02 41.81910 140.41702 33959 ft 461 kts 202°
2026-05-06 16:02 41.75745 140.39410 33962 ft 461 kts 202°
2026-05-06 16:03 41.69568 140.37120 33972 ft 461 kts 202°
2026-05-06 16:03 41.63403 140.34839 33976 ft 462 kts 202°
2026-05-06 16:04 41.57218 140.32548 33978 ft 463 kts 201°
2026-05-06 16:04 41.51038 140.30272 33980 ft 462 kts 202°
2026-05-06 16:05 41.44807 140.27982 33984 ft 462 kts 202°
2026-05-06 16:05 41.38578 140.25690 33978 ft 462 kts 202°
2026-05-06 16:06 41.32412 140.23428 33986 ft 464 kts 201°
2026-05-06 16:06 41.26218 140.21164 33979 ft 463 kts 202°
2026-05-06 16:07 41.20000 140.18893 33985 ft 464 kts 201°
2026-05-06 16:07 41.13744 140.16612 33983 ft 465 kts 202°
2026-05-06 16:08 41.07497 140.14395 33984 ft 464 kts 201°
2026-05-06 16:08 41.01247 140.12244 33981 ft 466 kts 201°
2026-05-06 16:09 40.94989 140.10097 33989 ft 467 kts 201°
2026-05-06 16:09 40.88683 140.07936 33991 ft 465 kts 201°
2026-05-06 16:10 40.82392 140.05774 34002 ft 467 kts 201°
2026-05-06 16:10 40.76128 140.03628 34006 ft 466 kts 201°
2026-05-06 16:11 40.69825 140.01462 34003 ft 472 kts 201°
2026-05-06 16:11 40.63443 139.99268 34003 ft 475 kts 201°
2026-05-06 16:12 40.57104 139.97101 34008 ft 476 kts 201°
2026-05-06 16:12 40.50761 139.94948 34008 ft 464 kts 200°
2026-05-06 16:13 40.44537 139.92604 34021 ft 462 kts 206°
2026-05-06 16:13 40.38712 139.89265 34007 ft 456 kts 213°
2026-05-06 16:14 40.33105 139.85458 34014 ft 454 kts 214°
2026-05-06 16:14 40.27557 139.81612 34026 ft 454 kts 214°
2026-05-06 16:15 40.21926 139.77751 34023 ft 454 kts 214°
2026-05-06 16:15 40.16334 139.73964 34022 ft 455 kts 214°
2026-05-06 16:16 40.10704 139.70186 34031 ft 455 kts 214°
2026-05-06 16:16 40.05083 139.66429 34021 ft 453 kts 213°
2026-05-06 16:17 39.99437 139.62709 34030 ft 456 kts 213°
2026-05-06 16:17 39.93794 139.59047 34021 ft 455 kts 213°
2026-05-06 16:18 39.88095 139.55360 34022 ft 456 kts 213°
2026-05-06 16:18 39.82414 139.51688 34019 ft 458 kts 213°
2026-05-06 16:19 39.76736 139.48024 34025 ft 457 kts 213°
2026-05-06 16:19 39.71024 139.44339 34021 ft 455 kts 213°
2026-05-06 16:20 39.65376 139.40698 34024 ft 458 kts 213°
2026-05-06 16:20 39.59663 139.37021 34025 ft 458 kts 213°
2026-05-06 16:21 39.53950 139.33353 34024 ft 457 kts 212°
2026-05-06 16:21 39.48256 139.29700 34027 ft 459 kts 213°
2026-05-06 16:22 39.42520 139.26033 34020 ft 461 kts 213°
2026-05-06 16:22 39.36760 139.22350 34015 ft 462 kts 213°
2026-05-06 16:23 39.31018 139.18694 34009 ft 462 kts 212°
2026-05-06 16:23 39.25231 139.15016 34010 ft 463 kts 212°
2026-05-06 16:24 39.19464 139.11360 34020 ft 462 kts 213°
2026-05-06 16:24 39.13700 139.07703 34030 ft 463 kts 212°
2026-05-06 16:25 39.07881 139.04021 34027 ft 463 kts 213°
2026-05-06 16:25 39.02124 139.00385 34023 ft 463 kts 213°
2026-05-06 16:26 38.96312 138.96719 34025 ft 462 kts 213°
2026-05-06 16:26 38.90557 138.93105 34026 ft 464 kts 212°
2026-05-06 16:27 38.84745 138.89452 34028 ft 462 kts 213°
2026-05-06 16:27 38.78987 138.85838 34024 ft 462 kts 213°
2026-05-06 16:28 38.73199 138.82213 34025 ft 462 kts 213°
2026-05-06 16:28 38.67406 138.78590 34024 ft 464 kts 212°
2026-05-06 16:29 38.61617 138.74986 34028 ft 462 kts 212°
2026-05-06 16:29 38.55828 138.71387 34022 ft 463 kts 212°
2026-05-06 16:30 38.50991 138.68384 34020 ft 462 kts 212°
2026-05-06 16:30 38.44189 138.64165 34018 ft 464 kts 212°
2026-05-06 16:31 38.38414 138.60591 34020 ft 464 kts 212°
2026-05-06 16:31 38.32621 138.57016 34019 ft 463 kts 212°
2026-05-06 16:32 38.26808 138.53433 34017 ft 462 kts 212°
2026-05-06 16:32 38.21018 138.49864 34017 ft 463 kts 212°
2026-05-06 16:33 38.15210 138.46291 34027 ft 463 kts 212°
2026-05-06 16:34 38.06695 138.40540 34026 ft 456 kts 220°
2026-05-06 16:34 38.01839 138.35449 34034 ft 452 kts 229°
2026-05-06 16:35 37.97341 138.29884 34033 ft 451 kts 230°
2026-05-06 16:35 37.92926 138.24291 34032 ft 448 kts 230°
2026-05-06 16:36 37.88494 138.18724 34033 ft 450 kts 230°
2026-05-06 16:36 37.84022 138.13174 34034 ft 452 kts 230°
2026-05-06 16:37 37.79542 138.07648 34030 ft 448 kts 230°
2026-05-06 16:37 37.75035 138.02107 34036 ft 454 kts 230°
2026-05-06 16:38 37.70499 137.96536 34032 ft 453 kts 230°
2026-05-06 16:38 37.65999 137.91037 34035 ft 451 kts 229°
2026-05-06 16:39 37.61484 137.85529 34033 ft 453 kts 230°
2026-05-06 16:39 37.56948 137.80003 34033 ft 452 kts 230°
2026-05-06 16:40 37.52409 137.74483 34033 ft 453 kts 229°
2026-05-06 16:40 37.47855 137.68956 34035 ft 453 kts 229°
2026-05-06 16:41 37.43330 137.63470 34035 ft 453 kts 229°
2026-05-06 16:41 37.38772 137.57958 34037 ft 451 kts 229°
2026-05-06 16:42 37.34236 137.52484 34034 ft 452 kts 229°
2026-05-06 16:42 37.29731 137.47054 34036 ft 455 kts 229°
2026-05-06 16:43 37.25164 137.41553 34034 ft 453 kts 229°
2026-05-06 16:43 37.20619 137.36102 34035 ft 452 kts 229°
2026-05-06 16:44 37.16098 137.30679 34031 ft 454 kts 229°
2026-05-06 16:44 37.11537 137.25218 34034 ft 453 kts 229°
2026-05-06 16:45 37.06945 137.19734 34028 ft 455 kts 229°
2026-05-06 16:45 37.02400 137.14313 34028 ft 450 kts 228°
2026-05-06 16:46 36.97842 137.08876 34030 ft 451 kts 229°
2026-05-06 16:46 36.93303 137.03482 34036 ft 453 kts 229°
2026-05-06 16:47 36.88722 136.98051 34042 ft 452 kts 228°
2026-05-06 16:47 36.84137 136.92622 34035 ft 452 kts 228°
2026-05-06 16:48 36.79581 136.87242 34039 ft 452 kts 229°
2026-05-06 16:48 36.74994 136.81834 34043 ft 452 kts 228°
2026-05-06 16:49 36.70385 136.76404 34046 ft 453 kts 228°
2026-05-06 16:49 36.65811 136.71028 34047 ft 455 kts 229°
2026-05-06 16:50 36.61230 136.65657 34050 ft 451 kts 228°
2026-05-06 16:50 36.56647 136.60286 34051 ft 454 kts 228°
2026-05-06 16:51 36.52062 136.54929 34055 ft 454 kts 228°
2026-05-06 16:51 36.47452 136.49554 34060 ft 458 kts 228°
2026-05-06 16:52 36.42815 136.44157 34057 ft 454 kts 228°
2026-05-06 16:52 36.38089 136.38936 34057 ft 457 kts 224°
2026-05-06 16:53 36.32928 136.34230 34058 ft 460 kts 219°
2026-05-06 16:53 36.27667 136.29736 34059 ft 464 kts 219°
2026-05-06 16:54 36.22361 136.25186 34055 ft 462 kts 219°
2026-05-06 16:54 36.17108 136.20644 34047 ft 462 kts 220°
2026-05-06 16:55 36.11852 136.16078 34032 ft 462 kts 220°
2026-05-06 16:55 36.06575 136.11488 34034 ft 461 kts 220°
2026-05-06 16:56 36.01328 136.06926 34039 ft 464 kts 220°
2026-05-06 16:56 35.96047 136.02331 34042 ft 468 kts 219°
2026-05-06 16:57 35.90766 135.97749 34043 ft 460 kts 220°
2026-05-06 16:57 35.85562 135.93243 34034 ft 462 kts 220°
2026-05-06 16:58 35.80301 135.88693 34035 ft 459 kts 220°
2026-05-06 16:58 35.75080 135.84193 33931 ft 449 kts 220°
2026-05-06 16:58 35.72532 135.82004 32928 ft 452 kts 220°
2026-05-06 16:59 35.69953 135.79781 31544 ft 463 kts 219°
2026-05-06 16:59 35.67302 135.77510 30179 ft 471 kts 217°
2026-05-06 16:59 35.64474 135.75449 29068 ft 474 kts 210°
2026-05-06 16:59 35.61429 135.73872 27963 ft 478 kts 201°
2026-05-06 17:00 35.58189 135.72879 26862 ft 480 kts 192°
2026-05-06 17:00 35.54875 135.72478 25656 ft 484 kts 185°
2026-05-06 17:00 35.51508 135.72417 24291 ft 489 kts 182°
2026-05-06 17:00 35.48117 135.72510 23434 ft 481 kts 181°
2026-05-06 17:01 35.44857 135.72656 22901 ft 468 kts 180°
2026-05-06 17:01 35.41612 135.72819 22043 ft 463 kts 180°
2026-05-06 17:01 35.38421 135.72981 21236 ft 456 kts 180°
2026-05-06 17:01 35.35274 135.73135 20377 ft 452 kts 180°
2026-05-06 17:02 35.32162 135.73285 19585 ft 445 kts 180°
2026-05-06 17:02 35.29100 135.73427 18729 ft 441 kts 180°
2026-05-06 17:02 35.26056 135.73566 17953 ft 434 kts 180°
2026-05-06 17:02 35.23063 135.73698 17198 ft 428 kts 180°
2026-05-06 17:03 35.20114 135.73827 16419 ft 421 kts 180°
2026-05-06 17:03 35.17209 135.73949 15672 ft 414 kts 180°
2026-05-06 17:03 35.14374 135.74068 14962 ft 407 kts 180°
2026-05-06 17:03 35.11527 135.74187 14454 ft 400 kts 180°
2026-05-06 17:04 35.08763 135.74306 13988 ft 399 kts 180°
2026-05-06 17:04 35.05998 135.74422 13522 ft 397 kts 180°
2026-05-06 17:04 35.03228 135.74538 13043 ft 392 kts 180°
2026-05-06 17:04 35.00513 135.74651 12575 ft 391 kts 180°
2026-05-06 17:05 34.97811 135.74764 12095 ft 388 kts 180°
2026-05-06 17:05 34.95134 135.74875 11612 ft 387 kts 180°
2026-05-06 17:05 34.92421 135.74988 11119 ft 384 kts 180°
2026-05-06 17:05 34.89792 135.75098 10721 ft 371 kts 180°
2026-05-06 17:06 34.87257 135.75206 10387 ft 354 kts 180°
2026-05-06 17:06 34.84854 135.75310 10180 ft 336 kts 180°
2026-05-06 17:06 34.82556 135.75409 9975 ft 320 kts 180°
2026-05-06 17:06 34.80389 135.75503 9776 ft 306 kts 180°
2026-05-06 17:07 34.78315 135.75592 9582 ft 293 kts 180°
2026-05-06 17:07 34.76308 135.75673 9379 ft 281 kts 180°
2026-05-06 17:07 34.74404 135.75751 9208 ft 270 kts 180°
2026-05-06 17:07 34.72516 135.75827 8848 ft 268 kts 181°
2026-05-06 17:08 34.70668 135.75903 8421 ft 268 kts 180°
2026-05-06 17:08 34.68837 135.75768 7988 ft 264 kts 198°
2026-05-06 17:08 34.67316 135.74594 7585 ft 259 kts 231°
2026-05-06 17:08 34.66405 135.72722 7220 ft 256 kts 244°
2026-05-06 17:09 34.65686 135.70750 6810 ft 255 kts 246°
2026-05-06 17:09 34.64993 135.68794 6384 ft 255 kts 246°
2026-05-06 17:09 34.64291 135.66821 5987 ft 254 kts 246°
2026-05-06 17:09 34.63588 135.64842 5567 ft 253 kts 246°
2026-05-06 17:10 34.62891 135.62885 5165 ft 252 kts 246°
2026-05-06 17:10 34.62257 135.60915 4702 ft 254 kts 257°
2026-05-06 17:10 34.62384 135.58795 4378 ft 253 kts 292°
2026-05-06 17:10 34.63509 135.57242 4245 ft 246 kts 329°
2026-05-06 17:11 34.65118 135.56601 3849 ft 246 kts 348°
2026-05-06 17:11 34.66733 135.56160 3520 ft 222 kts 344°
2026-05-06 17:11 34.68161 135.55656 3091 ft 209 kts 340°
2026-05-06 17:11 34.69383 135.54787 2664 ft 200 kts 320°
2026-05-06 17:12 34.70367 135.53654 2214 ft 191 kts 314°
2026-05-06 17:12 34.71238 135.52512 1880 ft 179 kts 314°
2026-05-06 17:12 34.72081 135.51448 1505 ft 172 kts 315°
2026-05-06 17:12 34.72887 135.50458 1282 ft 156 kts 315°
2026-05-06 17:13 34.73618 135.49565 1047 ft 141 kts 314°
2026-05-06 17:13 34.74269 135.48767 879 ft 130 kts 315°
2026-05-06 17:13 34.74934 135.47972 704 ft 136 kts 315°
2026-05-06 17:13 34.75605 135.47157 509 ft 136 kts 315°
2026-05-06 17:14 34.76264 135.46349 329 ft 134 kts 315°
2026-05-06 17:14 34.76913 135.45561 145 ft 130 kts 315°
2026-05-06 17:14 34.77536 135.44804 30 ft 117 kts 315°
2026-05-06 17:14 34.77948 135.44305 32 ft 52 kts 315°
2026-05-06 17:15 34.78169 135.44069 34 ft 36 kts 330°
2026-05-06 17:15 34.78388 135.43999 33 ft 30 kts 11°
2026-05-06 17:15 34.78560 135.44130 35 ft 29 kts 44°
2026-05-06 17:15 34.78647 135.44212 38 ft 13 kts
2026-05-06 17:16 34.78725 135.44148 37 ft 14 kts 316°
2026-05-06 17:16 34.78796 135.44063 35 ft 7 kts 318°
2026-05-06 17:16 34.78840 135.44008 34 ft 10 kts 315°
2026-05-06 17:16 34.78888 135.43955 35 ft 8 kts 333°
2026-05-06 17:17 34.78927 135.43976 37 ft 6 kts 61°
2026-05-06 17:17 34.78926 135.44016 37 ft 4 kts 123°
2026-05-06 17:17 34.78910 135.44041 38 ft 3 kts 141°
2026-05-06 17:17 34.78878 135.44055 37 ft 0 kts 164°
2026-05-06 17:18 34.78876 135.44057 37 ft 0 kts 165°